Weather History for Smyrna, TN

Change the Weather History Date:

Sunday, July 21, 2013

  Actual Average Record
Temperature  
Mean Temperature 80 °F -  
Max Temperature 90 °F 86 °F 101 °F (2006)
Min Temperature 70 °F 69 °F 59 °F (2007)
Cooling Degree Days 15    
Growing Degree Days 30 (Base 50)    
Moisture  
Dew Point 73 °F    
Average Humidity 85    
Maximum Humidity 100    
Minimum Humidity 55    
Precipitation  
Precipitation 0.00 in - - ()
Sea Level Pressure  
Sea Level Pressure 29.98 in    
Wind  
Wind Speed 3 mph (South)    
Max Wind Speed 13 mph    
Max Gust Speed -    
Visibility 9 miles    
Events Rain , Thunderstorm    
Averages and records for this station are not official NWS values.
T = Trace of Precipitation, MM = Missing Value Source: NWS Daily Summary

Daily Weather History Graph

Daily Weather History Graph

Search for Another Location

Airport:

Trip Planner

Search our weather history database for the weather conditions in past years. The results will help you decide how hot, cold, wet, or windy it might be!

Date:

Astronomy

Jul. 21, 2013 Rise Set
Actual Time 5:45 AM CDT 7:59 PM CDT
Civil Twilight 5:16 AM CDT 8:28 PM CDT
Nautical Twilight 4:40 AM CDT 9:03 PM CDT
Astronomical Twilight 4:01 AM CDT 9:42 PM CDT
Moon 6:58 PM CDT (7/21) 4:29 AM CDT (7/21)
Length of Visible Light 15h 12m
Length of Day
14h 14m
Waxing Gibbous, 98% of the Moon is Illuminated
Jul 21
Waxing Gibbous
Jul 22
Full
Jul 29
Last Quarter
Aug 6
New
Aug 14
First Quarter

Hourly Weather History & Observations

Time (CDT) Temp. Heat Index Dew Point Humidity Pressure Visibility Wind Dir Wind Speed Gust Speed Precip Events Conditions
12:56 AM 72.9 °F - 70.9 °F 93% 30.00 in 10.0 mi Calm Calm - N/A   Clear
1:56 AM 72.9 °F - 70.9 °F 93% 29.98 in 10.0 mi Calm Calm - N/A   Clear
2:56 AM 72.0 °F - 70.0 °F 93% 29.98 in 10.0 mi Calm Calm - N/A   Scattered Clouds
3:56 AM 70.9 °F - 70.9 °F 100% 29.96 in 10.0 mi Calm Calm - N/A   Partly Cloudy
4:56 AM 72.0 °F - 70.9 °F 96% 29.97 in 10.0 mi South 5.8 mph - N/A   Clear
5:56 AM 72.0 °F - 70.9 °F 96% 29.99 in 10.0 mi Calm Calm - N/A   Clear
6:56 AM 73.9 °F - 72.9 °F 96% 30.01 in 10.0 mi Calm Calm - N/A   Clear
7:56 AM 77.0 °F - 73.9 °F 90% 30.02 in 10.0 mi Calm Calm - N/A   Partly Cloudy
8:56 AM 81.9 °F 88.2 °F 74.8 °F 79% 30.02 in 10.0 mi SSW 6.9 mph - N/A   Partly Cloudy
9:56 AM 84.9 °F 93.3 °F 74.8 °F 72% 30.02 in 10.0 mi West 9.2 mph - N/A   Partly Cloudy
10:56 AM 86.9 °F 95.9 °F 74.8 °F 67% 30.01 in 10.0 mi Variable 6.9 mph - N/A   Scattered Clouds
11:56 AM 90.0 °F 100.2 °F 74.8 °F 61% 29.99 in 10.0 mi NW 8.1 mph - N/A   Scattered Clouds
12:56 PM 88.9 °F 94.7 °F 70.9 °F 55% 29.98 in 10.0 mi WNW 12.7 mph - N/A   Scattered Clouds
1:56 PM 86.0 °F 96.0 °F 75.9 °F 72% 29.98 in 10.0 mi East 10.4 mph - 0.00 in   Overcast
2:30 PM 80.6 °F 86.2 °F 75.2 °F 84% 29.96 in 2.5 mi East 3.5 mph - 0.00 in Rain Rain
2:37 PM 80.6 °F 86.2 °F 75.2 °F 84% 29.96 in 3.0 mi East 4.6 mph - 0.00 in Rain Light Rain
2:56 PM 81.9 °F 89.7 °F 77.0 °F 85% 29.97 in 10.0 mi East 5.8 mph - 0.00 in   Mostly Cloudy
3:10 PM 78.8 °F - 75.2 °F 89% 29.96 in 7.0 mi West 11.5 mph - 0.00 in Rain , Thunderstorm Heavy Thunderstorms and Rain
3:56 PM 75.9 °F - 70.9 °F 84% 29.96 in 10.0 mi SE 4.6 mph - 0.00 in   Mostly Cloudy
4:56 PM 79.0 °F - 73.9 °F 84% 29.96 in 10.0 mi Calm Calm - N/A   Partly Cloudy
5:56 PM 79.9 °F - 74.8 °F 85% 29.95 in 10.0 mi Calm Calm - N/A   Clear
6:56 PM 79.9 °F - 72.9 °F 79% 29.97 in 10.0 mi Calm Calm - N/A   Clear
7:56 PM 77.9 °F - 72.0 °F 82% 29.97 in 10.0 mi Calm Calm - N/A   Scattered Clouds
8:56 PM 75.9 °F - 72.9 °F 90% 29.97 in 10.0 mi Calm Calm - N/A   Clear
9:56 PM 74.8 °F - 72.0 °F 91% 30.00 in 10.0 mi South 4.6 mph - N/A   Clear
10:56 PM 73.9 °F - 70.9 °F 90% 29.99 in 10.0 mi South 5.8 mph - N/A   Clear
11:56 PM 72.9 °F - 70.9 °F 93% 29.98 in 10.0 mi Calm Calm - N/A   Clear